This demonstration page uses our WeatherBlox Daily Observations layout. Learn more.

Left ArrowRight Arrow

Hourly Observations for August 9, 2022

Temp ( °F °C ) Dew Point ( °F °C ) Humidity (%) Winds ( mph kmh ) Pressure ( in mb ) Visibility ( mi km ) Precip ( " mm )
12:53 am 00:53 Clear 64 17.8 57 13.9 78 78 S 3 6 30.12 1020 10 16 0.00 0.00
1:53 am 01:53 Clear 61 16.1 58 14.4 90 90 Calm 30.11 1020 10 16 0.00 0.00
2:53 am 02:53 Clear 60 15.6 56 13.3 86 86 Calm 30.10 1019 10 16 0.00 0.00
3:53 am 03:53 Clear 58 14.4 56 13.3 93 93 Calm 30.10 1019 9 14 0.00 0.00
4:53 am 04:53 Clear 56 13.3 54 12.2 93 93 Calm 30.09 1019 10 16 0.00 0.00
5:53 am 05:53 Clear 60 15.6 56 13.3 86 86 SE 3 6 30.09 1019 10 16 0.00 0.00
6:53 am 06:53 Sunny 60 15.6 55 12.8 83 83 Calm 30.10 1019 10 16 0.00 0.00
7:53 am 07:53 Sunny 64 17.8 57 13.9 78 78 S 5 7 30.11 1020 10 16 0.00 0.00
8:53 am 08:53 Sunny 68 20 59 15 73 73 SSE 7 11 30.13 1020 10 16 0.00 0.00
9:03 am 09:03 Mostly Sunny 68 20 59 15 73 73 S 6 9 30.11 1020 10 16 0.00 0.00
9:18 am 09:18 Mostly Cloudy 69 20.6 60 15.6 73 73 S 8 13 30.11 1020 10 16 0.00 0.00
9:37 am 09:37 Partly Cloudy 70 21.1 61 16.1 73 73 SSE 8 13 30.11 1020 10 16 0.00 0.00
9:53 am 09:53 Sunny 71 21.7 62 16.7 73 73 SSE 9 15 30.14 1021 9 14 0.00 0.00
10:53 am 10:53 Sunny 75 23.9 64 17.8 69 69 S 9 15 30.13 1020 10 16 0.00 0.00
11:53 am 11:53 Sunny 79 26.1 62 16.7 56 56 VRB 7 11 30.13 1020 10 16 0.00 0.00
12:53 pm 12:53 Sunny 81 27.2 60 15.6 49 49 VRB 6 9 30.12 1020 10 16 0.00 0.00
2:53 pm 14:53 Sunny 85 29.4 60 15.6 43 43 VRB 6 9 30.09 1019 10 16 0.00 0.00
3:53 pm 15:53 Sunny 86 30 61 16.1 43 43 SSW 8 13 30.08 1019 10 16 0.00 0.00
4:53 pm 16:53 Sunny 86 30 62 16.7 45 45 VRB 7 11 30.06 1018 10 16 0.00 0.00
5:53 pm 17:53 Sunny 86 30 62 16.7 45 45 S 6 9 30.05 1018 10 16 0.00 0.00
6:53 pm 18:53 Sunny 86 30 64 17.8 48 48 S 6 9 30.04 1017 10 16 0.00 0.00
7:53 pm 19:53 Sunny 83 28.3 61 16.1 48 48 SSE 9 15 30.04 1017 10 16 0.00 0.00
8:53 pm 20:53 Clear 79 26.1 64 17.8 60 60 SSE 7 11 30.04 1017 10 16 0.00 0.00
9:53 pm 21:53 Clear 76 24.4 64 17.8 67 67 SE 3 6 30.08 1019 10 16 0.00 0.00
10:53 pm 22:53 Clear 76 24.4 62 16.7 62 62 SSE 7 11 30.09 1019 10 16 0.00 0.00
11:53 pm 23:53 Clear 72 22.2 63 17.2 73 73 S 5 7 30.11 1020 10 16 0.00 0.00

Powered by AerisWeather